FW2510 Weather Reports


time (UTC)temp
F
wind
direction
speed
knots
gust
knots
rain 1hr
in
rain 24hr
in
rain mn
in
humidity
%
barometer
mb
20260505034613 63 171 0.0 3.5 0.00 0.00 0.00 38 1015.9
20260505033055 63 204 0.0 3.5 0.00 0.00 0.00 37 1016.0
20260505031555 64 189 0.0 3.5 0.00 0.00 0.00 37 1015.9
20260505030023 64 159 0.0 0.9 0.00 0.00 0.00 35 1015.9
20260505024520 65 213 0.0 0.9 0.00 0.00 0.00 35 1016.1
20260505023050 65 213 0.0 0.0 0.00 0.00 0.00 34 1015.8
20260505021549 66 213 0.0 0.0 0.00 0.00 0.00 33 1015.7
20260505020019 66 169 0.0 0.9 0.00 0.00 0.00 32 1015.6
20260505014518 66 169 0.0 0.0 0.00 0.00 0.00 32 1015.6
20260505013048 67 169 0.0 0.9 0.00 0.00 0.00 30 1015.4
20260505011609 68 169 0.0 0.0 0.00 0.00 0.00 29 1015.3
20260505010049 69 169 0.0 0.0 0.00 0.00 0.00 28 1015.1
20260505004547 70 169 0.0 0.0 0.00 0.00 0.00 26 1015.0
20260505003047 71 169 0.0 0.0 0.00 0.00 0.00 25 1014.7
20260505001551 71 169 0.0 0.0 0.00 0.00 0.00 24 1014.7
20260505000055 72 217 0.0 2.6 0.00 0.00 0.00 24 1014.6
20260504234541 73 137 0.0 4.3 0.00 0.00 0.00 22 1014.4
20260504233055 74 139 0.0 6.1 0.00 0.00 0.00 21 1014.3
20260504231540 75 149 0.9 6.1 0.00 0.00 0.00 21 1014.2
20260504230036 75 155 0.0 1.7 0.00 0.00 0.00 21 1014.1
20260504224541 76 126 0.0 6.1 0.00 0.00 0.00 19 1014.2
20260504223035 77 192 0.0 6.1 0.00 0.00 0.00 19 1014.2
20260504221534 77 90 0.0 6.1 0.00 0.00 0.00 18 1014.1
20260504220004 78 169 0.9 7.0 0.00 0.00 0.00 16 1014.2
20260504214506 77 198 0.9 6.1 0.00 0.00 0.00 18 1014.2
20260504213100 78 211 0.9 6.1 0.00 0.00 0.00 20 1014.2
20260504211558 77 173 0.0 7.8 0.00 0.00 0.00 20 1014.2
20260504210059 77 167 1.7 8.7 0.00 0.00 0.00 18 1014.3
20260504204558 77 132 0.0 7.8 0.00 0.00 0.00 19 1014.5
20260504203025 77 146 0.0 3.5 0.00 0.00 0.00 19 1014.7
20260504201521 77 122 0.0 7.8 0.00 0.00 0.00 20 1014.8
20260504200016 77 138 0.9 9.6 0.00 0.00 0.00 19 1015.3
20260504194516 76 132 0.9 7.0 0.00 0.00 0.00 20 1015.3
20260504193014 76 154 1.7 9.6 0.00 0.00 0.00 21 1015.5
20260504191513 76 171 0.0 10.4 0.00 0.00 0.00 23 1015.7
20260504190008 76 109 0.9 7.0 0.00 0.00 0.00 24 1015.7
20260504184504 75 161 1.7 8.7 0.00 0.00 0.00 26 1016.1
20260504183002 75 174 1.7 8.7 0.00 0.00 0.00 22 1016.2
20260504181603 74 127 0.0 7.8 0.00 0.00 0.00 22 1016.4
20260504180027 74 126 1.7 5.2 0.00 0.00 0.00 23 1016.6
20260504174527 73 116 2.6 7.8 0.00 0.00 0.00 20 1016.6
20260504173022 73 152 0.9 5.2 0.00 0.00 0.00 22 1016.7
20260504171530 73 129 0.0 4.3 0.00 0.00 0.00 24 1017.0
20260504150126 66 148 0.0 3.5 0.00 0.00 0.00 33 1018.3
20260504090105 48 215 0.0 0.0 0.00 0.00 0.00 59 1017.7
20260504081541 49 215 0.0 0.0 0.00 0.00 0.00 57 1017.5
20260504044520 53 171 0.0 0.0 0.00 0.00 0.00 52 1017.4
20260504043016 53 171 0.0 0.0 0.00 0.00 0.00 51 1017.5
20260504041516 54 171 0.0 0.9 0.00 0.00 0.00 50 1017.7
20260504040014 55 171 0.0 0.0 0.00 0.00 0.00 49 1017.8